Location: Kerberlivit
(48.2787°N, 4.5413°W)
Time: 17:37:51
(UTC+00:00)

CZ-2C R/B - Pass Details

Date: 18 February 2020
Orbit: 667 x 785 km, 98.1° (Epoch: 05 April)

Event Time Altitude Azimuth Distance (km) Brightness Sun altitude
Rises 03:51:27 0° 21° (NNE) 3,288 6.3 -35.0°
Reaches altitude 10° 03:54:02 10° 31° (NNE) 2,351 5.6 -34.6°
Maximum altitude 03:58:42 33° 95° (E) 1,293 4.0 -33.9°
Enters shadow 03:59:17 32° 108° (ESE) 1,313 4.0 -33.8°
